Regional Weather Roundup
Issued by NWS

Home | Current Version | Previous Version | Graphics & Text | Print | Product List | Glossary On
Versions: 1 2 3 4 5 6 7 8 9 10 11 12 13 14 15 16 17 18 19 20 21 22 23 24 25 26 27 28 29 30 31 32 33 34 35 36 37 38 39 40 41 42 43 44 45 46 47 48 49 50
000
ASUS43 KMPX 181101
RWRMN
WEATHER ROUNDUP FOR MINNESOTA
NATIONAL WEATHER SERVICE TWIN CITIES/CHANHASSEN MN
600 AM CDT FRI APR 18 2014


NOTE: "FAIR" INDICATES FEW OR NO CLOUDS BELOW 12,000 FEET WITH NO
SIGNIFICANT WEATHER AND/OR OBSTRUCTIONS TO VISIBILITY. N/A MEANS
CURRENT SKY AND/OR WEATHER CONDITIONS ARE NOT AVAILABLE.

MNZ060>063-068>070-181200-
   Twin Cities Metro

CITY           SKY/WX    TMP DP  RH WIND       PRES   REMARKS
TWIN CITIES    PTCLDY    27  26  96 CALM      30.34R
ST PAUL        CLEAR     27  25  92 CALM      30.35S
CRYSTAL        PTCLDY    22  19  89 CALM      30.32R
BLAINE         PTCLDY    23  21  93 CALM      30.33S
EDEN PRAIRIE   MOCLDY    26  24  92 CALM      30.32R FOG
LAKEVILLE      CLOUDY    25  25 100 CALM      30.33R FOG
SOUTH ST PAUL  PTCLDY    29  26  90 CALM      30.34R
LAKE ELMO      MOCLDY    27  27 100 CALM      30.35R
$$
MNZ001>005-007-008-013>017-022>024-027-028-181200-
   Northwest Minnesota

CITY           SKY/WX    TMP DP  RH WIND       PRES   REMARKS
BEMIDJI        PTCLDY    20  16  84 CALM      30.29S
HALLOCK        CLOUDY    28  19  69 E8        30.29F WCI  20
ROSEAU         CLEAR     21  16  79 CALM      30.31S
WARROAD        CLEAR     19  10  68 CALM      30.33S
THIEF RVR FALL PTCLDY    28  12  50 E8        30.30S WCI  20
CROOKSTON      CLOUDY    30  18  59 SE7       30.30S WCI  23
FOSSTON        MOCLDY    23  14  68 E5        30.29S WCI  17
DETROIT LAKES  PTCLDY    30  21  69 SE3       30.29S
MOORHEAD       CLOUDY    34  27  75 SE5       30.28F WCI  30
PARK RAPIDS    CLOUDY    28  20  71 CALM      30.28R
$$
MNZ006-009>011-018-025>026-181200-
   North Central Minnesota

CITY           SKY/WX    TMP DP  RH WIND       PRES   REMARKS
BAUDETTE       CLEAR     20  15  81 CALM      30.32S
FLAG ISLAND    CLEAR     18  12  79 CALM      30.32S
INTL FALLS     CLEAR     16  13  88 CALM      30.33R
WASKISH        CLEAR     18  16  93 CALM      30.32R
BIG FORK       CLEAR     16  12  86 CALM      30.33R
LONGVILLE      PTCLDY    27  23  86 CALM      30.31R
GRAND RAPIDS   PTCLDY    21  18  86 CALM      30.31S
CRANE LAKE     CLEAR      7   1  78 CALM      30.37R
ORR            CLEAR     10   7  85 CALM      30.31R
COOK           CLEAR     10   9  92 CALM      30.34R
$$
MNZ012-019>021-037-181200-
   Northeast Minnesota

CITY           SKY/WX    TMP DP  RH WIND       PRES   REMARKS
DULUTH         MOCLDY    22  17  81 N3        30.31S
ELY            CLEAR      9   7  92 CALM      30.33R
HIBBING        CLEAR     17  13  84 CALM      30.32S
EVELETH        FAIR      14  12  92 CALM      30.34R
DULUTH HARBOR  CLOUDY    25  21  86 CALM      30.37R
TWO HARBORS    PTCLDY    25  18  74 CALM      30.32R
SILVER BAY     PTCLDY    16  16 100 CALM      30.32R
GRAND MARAIS     N/A     29  25  85 CALM      30.34R
G MARAIS ARPRT PTCLDY    21  18  86 CALM      30.27S
$$
MNZ029>031-032-039>041-046>048-054>057-064-181200-
   West Central Minnesota

CITY           SKY/WX    TMP DP  RH WIND       PRES   REMARKS
FERGUS FALLS   FLURRIES  34  25  69 S6        30.26F WCI  29
WHEATON        MOCLDY    30  28  93 SE6       30.29S WCI  24
MORRIS         MOCLDY    30  27  86 E6        30.28R WCI  24
ALEXANDRIA     CLOUDY    32  24  72 NE6       30.28F WCI  26
ELBOW LAKE     CLOUDY    32  25  76 E5        30.27S WCI  28
WADENA         CLOUDY    27  21  80 CALM      30.28S
GLENWOOD       CLOUDY    28  25  86 E6        30.28F WCI  22
APPLETON       CLOUDY    30  27  86 E6        30.28S WCI  24
BENSON         CLOUDY    28  25  86 CALM      30.29S
ORTONVILLE     MOCLDY    28  23  80 SE7       30.27S WCI  21
MADISON        CLOUDY    36  28  75 SE7       30.27S
WILLMAR        FAIR      28  25  86 CALM      30.31R
$$
MNZ033>034-036-042>043-049>051-058-059-181200-
   Central Minnesota

CITY           SKY/WX    TMP DP  RH WIND       PRES   REMARKS
ST CLOUD       CLOUDY    24  20  84 E3        30.32R
SAUK CENTRE    CLOUDY    27  23  84 CALM      30.30S
PAYNESVILLE    CLOUDY    26  23  87 CALM      30.31S
AITKIN         MOCLDY    28  21  74 E5        30.30R WCI  23
PINE RIVER     CLOUDY    28  21  74 CALM      30.32R
BRAINERD       CLOUDY    32  22  66 SE3       30.31R
STAPLES        CLOUDY    27  19  74 CALM      30.29R
LONG PRAIRIE   CLOUDY    28  23  80 CALM      30.30R
LITTLE FALLS   MOCLDY    28  21  74 CALM      30.31S
LITCHFIELD     PTCLDY    25  25 100 CALM      30.32R
BUFFALO        PTCLDY    22  20  92 CALM      30.34R FOG
MAPLE LAKE     MOCLDY    22  22  98 CALM      30.33S FOG
$$
MNZ037-044-045-052-053-181200-
   East Central Minnesota

CITY           SKY/WX    TMP DP  RH WIND       PRES   REMARKS
PRINCETON      CLOUDY    21  19  93 CALM      30.33R
MORA           CLOUDY    19  18  93 CALM      30.34S
CAMBRIDGE      CLOUDY    25  18  74 CALM      30.32R
RUSH CITY      CLOUDY    20  18  93 CALM      30.34R
MOOSE LAKE     CLOUDY    23  21  93 NE5       30.31S WCI  17
HINCKLEY       PTSUNNY   23  23 100 CALM      30.33R
CLOQUET        CLOUDY    18  16  93 CALM      30.32S
MCGREGOR       PTCLDY    28  23  80 E3        30.32S
$$
MNZ071>073-080-081-089-090-097-098-181200-
   Southwest Minnesota

CITY           SKY/WX    TMP DP  RH WIND       PRES   REMARKS
MONTEVIDEO     CLOUDY    30  27  86 S6        30.29F WCI  24
GRANITE FALLS  CLOUDY    28  24  83 E6        30.30F WCI  22
CANBY          CLOUDY    32  28  85 SE7       30.27S WCI  25
MARSHALL       CLOUDY    34  27  75 S8        30.27R WCI  27
REDWOOD FALLS  CLOUDY    31  28  89 E5        30.30R WCI  26
OLIVIA         CLOUDY    30  27  86 CALM      30.30R
PIPESTONE      MOCLDY    32  28  86 SE10      30.23S WCI  24
WINDOM         CLOUDY    30  28  93 SE5       30.29R WCI  25
WORTHINGTON    PTCLDY    28  23  80 SE6       30.28S WCI  22
JACKSON        MOCLDY    32  28  86 SE5       30.29R FOG     WCI  27
TRACY          CLOUDY    33  29  88 S7        30.28R WCI  26
SLAYTON        MOCLDY    30  29  96 SE7       30.27S FOG     WCI  23
$$
MNZ065>067-074>077-082>085-091>093-181200-
   South Central Minnesota

CITY           SKY/WX    TMP DP  RH WIND       PRES   REMARKS
MANKATO        CLOUDY    32  28  86 SE6       30.33R WCI  26
NEW ULM        MOCLDY    30  28  93 SE5       30.31S WCI  25
ST JAMES       MOCLDY    34  30  86 E3        30.32S
FAIRMONT       CLOUDY    30  27  86 SE3       30.32S
GLENCOE        CLOUDY    29  26  87 CALM      30.32R FOG
FARIBAULT      CLOUDY    32  27  80 CALM      30.33R HAZE
OWATONNA       MOCLDY    30  28  93 E5        30.32S FOG     WCI  25
WASECA         CLOUDY    34  32  93 E3        30.34S FOG
ALBERT LEA     CLOUDY    28  28 100 E3        30.31S FOG
$$
MNZ078>079-086>088-094>096-181200-
   Southeast Minnesota

CITY           SKY/WX    TMP DP  RH WIND       PRES   REMARKS
ROCHESTER      CLOUDY    28  24  85 S3        30.32S FOG
RED WING       MOCLDY    25  25 100 E3        30.33F FOG
STANTON        CLOUDY    29  28  93 SW5       30.33R FOG     WCI  24
DODGE CENTER   MOCLDY    32  30  93 CALM      30.32R FOG
WINONA         CLEAR     28  27  93 CALM      30.37S FOG
AUSTIN         CLOUDY    27  27 100 CALM      30.32S FOG
PRESTON        CLEAR     30  27  90 CALM      30.33S FOG
$$
ABBREVIATIONS USED IN REMARKS
   TC - TEMPERATURES IN CELSIUS
  WCI - WIND CHILL INDEX
   HX - HEAT INDEX
  VSB - VISIBILITY
$$


USA.gov is the U.S. government's official web portal to all federal, state and local government web resources and services.